Location: Godiavel Galaoual
(15.2485°N, 12.6604°W)
Time: 18:06:56
(UTC+00:00)

Vanguard 3 - Visible Passes

Search period start: 18 June 2021 00:00
Search period end: 28 June 2021 00:00
Orbit: 508 x 3261 km, 33.3° (Epoch: 17 June)

Date Brightness Start Highest point End Pass type
(mag) Time Alt. Az. Time Alt. Az. Time Alt. Az.
18 Jun 9.3 03:55:46 12° SE 03:55:46 12° SE 03:56:28 10° ESE visible
19 Jun 7.5 04:50:23 31° SSW 04:52:06 41° SSE 04:55:55 10° ENE visible
20 Jun 9.3 03:40:27 15° ESE 03:40:27 15° ESE 03:41:40 10° ESE visible
20 Jun 6.9 05:45:00 10° WSW 05:49:48 54° NNW 05:53:28 10° NE visible
21 Jun 7.1 04:35:00 50° SSW 04:36:02 61° SSE 04:40:11 10° ENE visible
22 Jun 9.3 03:24:59 18° E 03:24:59 18° E 03:26:23 10° E visible
22 Jun 7.4 05:29:32 14° W 05:33:42 41° NNW 05:37:24 10° NE visible
23 Jun 7.0 04:19:28 76° SSW 04:19:54 83° SSE 04:24:23 10° ENE visible
24 Jun 9.3 03:09:24 20° E 03:09:24 20° E 03:10:51 10° E visible
24 Jun 7.9 05:13:56 17° W 05:17:32 34° NNW 05:21:20 10° NE visible
25 Jun 7.3 04:03:49 77° NNW 04:03:49 77° NNW 04:08:30 10° NE visible
26 Jun 9.5 02:53:39 21° ENE 02:53:39 21° ENE 02:55:10 10° ENE visible
26 Jun 8.3 04:58:11 19° WNW 05:01:21 29° NNW 05:05:16 10° NNE visible
27 Jun 7.8 03:47:59 61° N 03:47:59 61° N 03:52:35 10° NE visible
27 Jun 9.2 05:57:32 10° NW 05:59:21 12° NNW 06:01:00 10° N visible
